Wind_Speed
83 82 81 79 77 75 74 74 73 71 69 67 66 65 66 66 65 63 58 55 56 54 56 56 53 55 68
89 88 88 86 86 86 84 81 79 78 77 76 73 71 70 70 69 68 66 61 57 61 57 51 48 49 48
92 94 94 94 93 93 93 92 90 86 83 80 79 77 75 73 73 72 70 68 64 62 58 58 56 46 39
97 99 100 101 100 100 99 98 99 98 94 90 88 84 81 77 75 75 72 69 68 68 63 59 55 52 44
103 102 106 108 108 108 107 108 106 105 104 101 99 96 92 87 83 80 77 75 72 70 69 67 57 56 51
104 108 111 113 113 114 114 115 117 116 113 112 110 106 102 98 93 90 83 79 78 75 72 70 64 53 57
109 112 115 118 119 120 117 117 117 119 117 116 114 113 110 105 103 100 94 88 82 81 79 75 72 68 56
112 115 118 119 122 122 122 120 120 122 119 116 118 115 113 111 108 105 104 99 93 86 85 84 78 76 67
112 113 115 117 117 117 117 115 115 114 117 114 118 112 113 108 105 102 105 105 101 96 89 86 86 80 78
110 112 112 113 112 111 112 110 111 112 110 108 109 111 109 110 100 99 101 103 106 103 97 91 90 88 82
106 107 109 108 107 104 105 104 103 104 106 99 98 99 103 106 103 97 97 101 103 106 103 98 91 92 88
100 101 101 99 100 100 99 100 102 103 105 103 100 97 96 99 98 95 93 97 100 101 101 98 96 95 92
84 84 83 82 82 82 82 83 86 91 94 91 91 91 93 96 99 93 91 92 95 97 98 95 97 97 96
74 73 71 71 71 72 73 74 77 81 83 83 83 84 85 90 93 96 91 91 94 96 99 97 96 98 101
66 66 65 64 63 62 64 66 68 71 75 75 76 77 80 83 88 93 93 93 96 100 100 100 97 99 101
57 57 57 56 57 59 61 61 62 64 67 67 68 70 73 76 83 88 90 92 97 100 102 103 100 101 103
54 55 56 57 59 61 60 61 61 61 63 64 65 67 70 73 74 81 85 86 93 101 104 107 105 105 105
Wind_Direction
256 254 253 252 250 250 253 254 254 253 253 254 255 256 259 259 260 260 254 253 250 248 250 252 254 261 264
257 256 255 253 252 252 252 252 255 257 256 255 255 255 254 255 256 257 259 254 249 249 251 251 254 254 259
258 258 257 256 255 254 254 254 252 253 256 256 255 254 254 251 250 251 252 254 253 248 251 249 253 250 247
256 257 257 256 255 255 254 254 255 254 252 253 253 252 251 250 248 247 247 249 252 254 252 250 246 249 243
254 254 256 256 256 255 255 256 253 253 254 252 251 251 252 249 248 245 244 244 245 247 251 250 245 247 237
253 253 252 253 253 254 254 254 254 255 252 252 253 251 251 251 248 246 243 243 243 243 245 250 248 245 243
254 254 253 253 254 255 255 255 255 256 256 255 253 252 252 249 248 246 244 243 242 242 241 242 246 248 245
257 257 256 256 256 257 258 257 258 258 258 256 256 254 253 252 249 246 244 242 241 239 240 239 240 245 245
260 260 259 260 259 260 260 260 258 258 258 256 258 257 255 254 251 248 246 243 241 239 240 237 237 238 244
261 261 260 259 260 259 259 258 258 257 256 253 252 253 253 251 248 247 246 245 242 239 238 238 233 236 239
262 261 260 260 259 260 259 259 257 256 257 255 252 250 249 250 247 243 241 241 240 239 237 236 231 230 233
261 261 259 259 258 257 256 256 255 255 254 253 251 249 248 247 246 239 236 237 237 236 235 233 231 226 227
261 260 258 257 256 255 253 251 250 250 251 249 247 245 243 241 242 238 233 229 230 230 231 228 228 222 222
261 259 257 255 254 251 250 248 248 247 247 247 245 243 240 238 238 237 229 226 224 225 224 223 223 221 217
259 258 256 254 251 249 246 245 244 245 244 242 242 241 238 236 234 234 230 223 219 219 219 220 216 219 215
255 255 254 253 251 248 247 245 244 243 243 240 238 238 237 234 232 231 229 223 216 214 215 216 211 214 214
255 256 255 254 253 251 248 247 246 244 242 241 237 235 234 233 230 227 227 223 215 211 213 213 210 209 211
Height
10520 10526 10529 10534 10538 10543 10546 10550 10554 10560 10565 10569 10574 10578 10582 10585 10589 10595 10601 10605 10609 10612 10614 10618 10622 10624 10627
10496 10501 10505 10511 10515 10519 10523 10530 10534 10537 10543 10550 10557 10561 10568 10573 10577 10580 10586 10592 10597 10602 10604 10607 10612 10615 10619
10476 10474 10480 10484 10490 10493 10498 10502 10509 10517 10520 10525 10533 10539 10546 10555 10562 10567 10571 10578 10583 10589 10592 10596 10602 10606 10610
10450 10447 10447 10450 10459 10464 10471 10476 10481 10488 10501 10505 10507 10514 10523 10532 10543 10549 10555 10562 10569 10575 10580 10584 10590 10597 10603
10416 10420 10414 10417 10427 10435 10442 10444 10454 10461 10467 10474 10483 10490 10499 10510 10519 10527 10536 10544 10553 10561 10566 10572 10578 10587 10594
10380 10382 10384 10385 10390 10400 10408 10414 10420 10424 10436 10439 10451 10463 10474 10485 10495 10503 10514 10525 10534 10545 10552 10559 10566 10574 10582
10347 10348 10352 10353 10357 10363 10372 10380 10385 10387 10398 10407 10420 10429 10443 10456 10465 10476 10494 10503 10515 10526 10535 10544 10552 10562 10571
10313 10313 10318 10320 10323 10328 10335 10343 10350 10351 10363 10377 10376 10394 10405 10418 10435 10450 10463 10479 10492 10504 10515 10527 10537 10544 10557
10276 10279 10280 10284 10289 10294 10296 10308 10314 10319 10323 10343 10341 10357 10368 10379 10401 10421 10432 10447 10464 10480 10494 10507 10520 10528 10538
10233 10237 10242 10245 10251 10256 10260 10270 10278 10281 10281 10302 10309 10320 10329 10341 10364 10385 10400 10418 10431 10451 10470 10483 10500 10511 10522
10195 10199 10205 10210 10215 10222 10227 10232 10240 10248 10242 10264 10274 10285 10297 10303 10326 10346 10365 10381 10396 10416 10439 10459 10477 10491 10505
10160 10163 10168 10174 10181 10186 10193 10201 10205 10207 10209 10222 10237 10251 10263 10274 10284 10308 10330 10345 10366 10384 10408 10431 10451 10469 10484
10126 10129 10135 10141 10148 10154 10161 10167 10170 10172 10174 10189 10202 10215 10229 10241 10251 10271 10295 10312 10334 10356 10374 10400 10424 10444 10462
10100 10102 10107 10114 10119 10126 10131 10137 10140 10142 10149 10159 10172 10183 10197 10209 10221 10234 10260 10280 10304 10323 10344 10368 10395 10417 10438
10075 10078 10083 10088 10094 10100 10104 10109 10114 10119 10125 10136 10146 10157 10168 10181 10192 10204 10225 10249 10271 10292 10315 10339 10366 10390 10414
10054 10057 10060 10066 10071 10076 10081 10087 10093 10098 10103 10114 10125 10134 10143 10153 10163 10177 10195 10219 10243 10266 10288 10311 10338 10363 10387
10034 10037 10041 10045 10049 10052 10059 10065 10070 10077 10084 10092 10102 10111 10119 10127 10143 10157 10171 10195 10219 10241 10263 10283 10311 10335 10362